WESTFORD NEEDLES, 2375

Orbit data source: Space-Track

WESTFORD NEEDLES, 2375 is space debris in LEO originally from a launch on Thu, 09 May 1963 UTC launched from the Air Force Western Test Range (AFWTR). Debris objects in space refer to the collection of defunct objects orbiting the Earth. Examples of debris include non-operational satellites, rocket bodies, and fragments generated from explosions, collisions, or faulty payload assembly.

Loading next visibility...
Identifier
2375, 1963-014W
Orbit
LEO
Country
Flag of USUS
Related business
Manufacturer
Unknown
Mission
Spacecraft
Bus & Motor
Unknown
Mass
Unknown
Launch date (UTC)
1963-05-09 (62 years ago)
Launch vehicle
Unknown
Launch site
Air Force Western Test Range (AFWTR)
Object type
Payload
Rocket body
Debris
Shape & HBR
Unknown shape, 0.3 m
Radar Cross Section
Medium (>0.1 m² and <1 m²)

Expand to show TLE details & history
Last TLE update: 9 hours ago

TLE from 9 hours ago
0 WESTFORD NEEDLES
1 02375U 63014W   25290.86665890  .00000409  00000-0  43595-1 0  9997
2 02375  86.5001  85.0479 1637600  83.6458 294.7577  8.74902273350235
Epoch: 2025-10-17T20:47Z
TLE epoch observation values (Epoch: 2025-10-17T20:47:59.328Z)
Latitude
-0.00002°
Longitude
106.44482°
Altitude
3,131.092 km
Speed
6.617 km/s
True Right ascension
05h 40m 11s
True Declination
0° 00' 00"
Sunlit
Object was in daylight at epoch
Visualization orbit readout
Latitude
Unknown
Longitude
Unknown
Altitude
Unknown
Speed
Unknown
Apparent Right ascension
Unknown
Apparent Declination
Unknown
Sunlit
N/A
Visualization observer readout
Local Sidereal Time
00:52:22
Azimuth
Unknown
Elevation
Unknown
Doppler factor
Unknown
Orbital elements
Apogee altitude
5,197.005 km
Perigee altitude
1,939.383 km
Semi-major axis
9,946.331 km
Eccentricity
0.16376
Inclination
86.5001°
RAAN
85.0479°
Arg. of periapsis
83.6458°
True anomaly
276.44577°
Mean anomaly
294.7577°
Eccentric anomaly
285.72616°
Mean motion
2.18801 °/min
Orbital period
164.53 mins
BSTAR
0.043595

Documentation

Showing up to 5 results
|